www.pogodaiklimat.ru

Погода и климат >> Архив погоды >> Македония >> Охрид


ПОГОДА в Охриде

  • Прогноз погоды в Охриде
  • Монитор погоды в Охриде

АРХИВ ПОГОДЫ в Охриде

Время (UTC), дата Ветер
(напр.,м/с)
 
Видим.   Явления Облачность Т
(С)
Тd
(С)
f
(%)
Тe
(С)
Тes
(С)
Комфортность P
(гПа)
Po
(гПа)
Тmin
(С)
Tmax
(С)
R
(мм)
R24
(мм)
S
(см)
18 10.08 ЮВ 1 20 км 4/3 1200 м
[Cu Sc Ci fib]
+25.8 +15.1 52 +29 +29 душно 1013.2 935.3 +31.4
18 11.08 СЗ 1 20 км ясно +27.6 +13.5 42 +29 +29 жарко 1012.3 934.9 +32.2
21 11.08 С 1 20 км 3/3 1200 м
[Sc]
+20.4 +11.9 58 +23 +23 комфорт 1015.6 936.1
00 12.08 С 2 20 км 1/1 1200 м
[Sc]
+19.4 +11.1 59 +21 +21 комфорт 1015.9 936.1
03 12.08 СЗ 2 20 км 3/0
[Ci fib]
+16.8 +11.3 70 +17 +17 1016.2 935.7
06 12.08 штиль 0 20 км ясно +23.5 +13.7 54 +26 +31 жарко 1015.0 936.4 +15.7
09 12.08 Ю 3 20 км ясно +26.5 +17.3 57 +31 +43 душно 936.4
12 12.08 Ю 3 20 км ясно +29.1 +20.0 58 +35 +49 очень
душно
1011.2 934.5
15 12.08 Ю 2 20 км ясно +32.0 +13.9 33 +33 +38 жарко 1009.3 933.2
18 12.08 СВ 3 20 км ясно +26.2 +9.2 34 +27 +27 жарко 1010.9 933.2 +33.7
21 12.08 С 3 20 км ясно +20.9 +12.9 60 +24 +24 комфорт 1013.6 934.4
00 13.08 С 2 20 км ясно +17.3 +12.2 72 +18 +18 1014.6 934.4
03 13.08 СЗ 2 20 км ясно +14.9 +11.8 82 +15 +15 1015.2 934.2
06 13.08 штиль 0 20 км ясно +24.0 +14.7 56 +27 +32 жарко 1012.5 934.2 +14.9
09 13.08 Ю 2 20 км ясно +26.7 +12.3 41 +28 +43 жарко 1011.3 933.7
12 13.08 Ю 3 20 км ясно +28.9 +14.9 43 +31 +45 жарко 1008.5 931.7
15 13.08 Ю 2 20 км 3/3 1200 м
[Cu Sc]
+29.6 +18.6 52 +35 +38 очень
душно
1007.1 930.8
18 13.08 СВ 1 20 км 3/3 1200 м
[Sc]
+25.2 +14.3 51 +28 +28 жарко 1008.2 930.5 +31.4
03 14.08 СЗ 2 20 км ясно +14.7 +10.7 77 +14 +14 1011.8 931.0
06 14.08 штиль 0 20 км ясно +22.3 +13.4 57 +25 +30 комфорт 1009.9 931.3 +14.2
09 14.08 Ю 3 20 км ясно +26.2 +14.6 49 +29 +41 жарко 1008.2 930.8
12 14.08 ЮВ 4 20 км 3/3 1500 м
[Cu hum]
+31.1 +13.4 34 +32 +40 жарко 1005.4 929.3
15 14.08 ЮЗ 4 20 км 6/6 1200 м
[Cu Sc]
+30.4 +16.2 42 +33 +35 душно 1004.7 928.7
18 14.08 СЗ 4 20 км 8/6 1200 м
[Cu Sc Ci fib]
+22.2 +15.8 67 +26 +26 душно 1009.1 930.6 +32.4
03 15.08 СЗ 4 20 км ясно +16.1 +12.6 80 +15 +15 1012.4 932.0
06 15.08 С 4 20 км ясно +20.6 +12.3 59 +23 +25 комфорт 1011.8 932.6 +16.0
09 15.08 СЗ 3 20 км 4/1 1200 м
[Cu hum Ci fib]
+24.7 +11.5 44 +26 +37 жарко 1010.1 932.1
12 15.08 Ю 2 20 км 5/3 1500 м
[Cu med, cong Ac trans Ci fib]
+25.1 +15.5 55 +28 +37 жарко 1018.7 931.0
15 15.08 СЗ 4 20 км 4/3 1500 м
[Cu Sc Ac trans]
+27.3 +12.3 39 +29 +30 жарко 1007.3 930.1
18 15.08 СЗ 3 20 км 3/3 1500 м
[Sc]
+20.9 +11.9 56 +23 +23 комфорт 1011.2 932.1 +27.5
03 16.08 СЗ 3 20 км ясно +14.2 +10.5 78 +13 +13 1015.0 933.8
06 16.08 С 3 20 км 4/3 1200 м
[Sc Ci fib]
+18.6 +10.5 59 +19 +21 1014.6 934.6 +13.9
09 16.08 С 3 20 км 1/1 1200 м
[Cu hum]
+24.1 +9.6 40 +25 +36 комфорт 1012.7 934.2
12 16.08 Ю 3 20 км 4/4 1200 м
[Cu Sc]
+24.2 +11.5 45 +26 +33 жарко 1011.9 933.6
15 16.08 Ю 2 20 км 8/4 1200 м
[Cu Sc Ac trans]
+24.0 +11.0 44 +25 +27 комфорт 1010.8 932.5
18 16.08 СЗ 3 20 км 5/3 1200 м
[Sc Ac trans]
+20.6 +7.5 43 +22 +22 комфорт 1012.7 933.3 +26.5
21 16.08 СЗ 3 20 км 3/0 2000 м
[Ac trans]
+17.3 +7.4 52 +17 +17 1015.6 935.2
00 17.08 С 3 20 км ясно +15.8 +5.9 52 +15 +15 1016.8 935.8
06 17.08 20 км ясно +17.7 +6.5 48 1016.8 936.4 +11.3
12 17.08 ЮВ 2 20 км 5/3 1200 м
[Cu Sc Ac trans]
+25.8 +3.8 24 +25 +34 комфорт 1013.6 935.4

 

Местоположение метеостанции Охрид (Македония): широта 41.10 долгота 20.82 высота над уровнем моря 700 м.

В архиве по умолчанию представлена погода в Охриде за последнюю неделю. Архивные данные за месяц целиком и за предыдущие месяцы, начиная с января 2011 года, Вы можете получить, выбрав интересующий диапазон дат из раскрывающегося списка и нажав кнопку "Ввод!".


*Определитесь, кто Вы:
робот инопланетянин человек

Внимание! Время в таблицах - всемирное. Для получения местного времени необходимо прибавить поправку, которая равна 1 ч.

Смотрите также архив погоды в соседних городах и на ближайших метеорологических станциях:

Погода в Охрид аэропорту (Македония) (3 км)
Погода в Преторе (Македония) (35 км)
Погода в Битоле (Македония) (46 км)
Погода на Лазарополе (Македония) (49 км)
Погода в Корке (Албания) (56 км)
Погода в Тополчани (Македония) (56 км)
Погода в Эльбасане (Албания) (58 км)
Погода во Флорине (Греция) (60 км)
Погода в Прилепе (Македония) (68 км)
Погода в Пешкопии (Албания) (72 км)

Пояснения к столбцам:

Ветер - указаны скорость ветра в м/с - средняя за 10 мин, порывы в срок и между сроками (в фигурных скобках) и направление, откуда дует ветер: С - северный, СВ - северо-восточный, В - восточный, ЮВ - юго-восточный, Ю - южный, ЮЗ - юго-западный, З - западный, СЗ - северо-западный.
Видимость - горизонтальная дальность видимости в метрах или километрах. При видимости от 1 до 10 км при отсутствии осадков обычно наблюдается дымка, при ухудшении видимости до 1 км и менее - туман. В сухую погоду видимость может ухудшаться дымом, пылью или мглою.
Явления - указаны атмосферные явления, наблюдавшиеся в срок или в последний час перед сроком; фигурными скобками обозначены явления, наблюдавшиеся между сроками (за 1-3 часа до срока); квадратными скобками обозначены град или гололедные отложения с указанием их диаметра в мм.
Облачность - указаны через наклонную черту общая и нижняя облачность в баллах и высота нижней границы облаков в метрах; квадратными скобками обозначены формы облаков: Ci - перистые, Cs - перисто-слоистые, Cc - перисто-кучевые, Ac - высококучевые, As - высокослоистые, Sc - слоисто-кучевые, Ns - слоисто-дождевые, Cu - кучевые, Cb - кучево-дождевые. Подробнее классификацию облаков см. в Атласе облаков (PDF).
T - Температура воздуха - температура, измеренная на высоте 2 м над землей.
Td - Температура точки росы - температура, при понижении до которой содержащийся в воздухе водяной пар достигнет насыщения.
f - Относительная влажность воздуха - влажноcть воздуха, измеренная на высоте 2 м над землей.
Te - Эффективная температура - температура, которую ощущает одетый по сезону человек в тени. Характеристика душности погоды. При расчете учитывается влияние влажности воздуха и скорости ветра на теплоощущения человека.
Tes - Эффективная температура на солнце - температура, которую ощущает человек, с поправкой на солнечный нагрев. Характеристика знойности погоды. Зависит от высоты солнца над горизонтом, облачности и скорости ветра. Ночью, в пасмурную погоду, а также при ветре 12 м/с и более поправка равна нулю.
P - Атмосферное давление - приведенное к уровню моря атмосферное давление.
Po - Атмосферное давление - измеренное на уровне метеостанции атмосферное давление.
Tmin - Минимальная температура - минимум температуры воздуха на высоте 2 м над землей.
Tmax - Максимальная температура - максимум температуры воздуха на высоте 2 м над землей.
R - Количество осадков - Количество выпавших осадков за период времени, мм. При наведении курсора мыши на число - период времени, за который выпало указанное количество осадков.
R24 - Количество осадков - Количество выпавших осадков за 24 часа, мм.
S - Снежный покров - Высота снежного покрова, см. При наведении курсора мыши на число - состояние снежного покрова и степень покрытия местности в баллах.